Regional Weather Roundup
Issued by NWS

Home | Current Version | Previous Version | Text Only | Print | Product List | Glossary On
Versions: 1 2 3 4 5 6 7 8 9 10 11 12 13 14 15 16 17 18 19 20 21 22 23 24 25 26 27 28 29 30 31 32 33 34 35 36 37 38 39 40 41 42 43 44 45 46 47 48 49 50
000
ASUS44 KFWD 260715
RWRTX
NORTH TEXAS HOURLY WEATHER ROUNDUP
NATIONAL WEATHER SERVICE FORT WORTH TX
100 AM CST SUN FEB 26 2017

NOTE: "FAIR" INDICATES FEW OR NO CLOUDS BELOW 12,000 FEET WITH NO
SIGNIFICANT WEATHER AND/OR OBSTRUCTIONS TO VISIBILITY.

TXZ118-119-260800-
DALLAS/FORT WORTH METROPLEX

CITY           SKY/WX    TMP DP  RH WIND       PRES   REMARKS
DFW AIRPORT    MOCLDY    43  27  53 E6        30.03F WCI  39
DALLAS LOVE    CLOUDY    47  26  44 E8        30.05F
FTW MEACHAM    CLOUDY    44  26  49 E7        30.04F
DAL-EXECUTIVE  CLOUDY    41  27  57 E5        30.04F WCI  38
FTW-ALLIANCE   CLOUDY    40  27  59 CALM      30.03F
FTW-NAS-JRB    CLOUDY    45  26  47 SE7       30.05F
FTW-SPINKS     CLEAR     38  27  64 CALM      30.05F
ARLINGTON      CLOUDY    38  29  70 E5        30.05F WCI  34
GRAND PRAIRIE  CLOUDY    42  26  52 CALM      30.07F
ADDISON        PTCLDY    45  28  51 E5        30.07F
MESQUITE       CLOUDY    37  28  68 CALM      30.07F
LANCASTER      CLEAR     36  27  72 CALM      30.07F
$$

TXZ091>094-102>105-117-120-121-131>134-260800-
NORTH CENTRAL TEXAS

CITY           SKY/WX    TMP DP  RH WIND       PRES   REMARKS
SHRMAN/DENISON PTCLDY    42  23  46 SE9       30.06F WCI  37
GAINESVILLE    PTCLDY    34  24  65 SE6       30.06F WCI  29
BOWIE          PTCLDY    37  25  62 SE6       30.02S WCI  32
BRIDGEPORT     PTCLDY    37  26  63 SE3       30.05F
DECATUR        CLOUDY    40  25  54 SE6       30.03F WCI  36
DENTON         CLOUDY    36  28  73 SE6       30.04F WCI  31
MCKINNEY       CLEAR     35  30  82 CALM      30.07F
BONHAM         CLOUDY    34  28  80 SE5       30.08F WCI  30
GREENVILLE     PTCLDY    32  30  93 CALM      30.08F
ROCKWALL       PTCLDY    40  28  63 E3        30.07F
TERRELL        PTCLDY    36  29  75 NE5       30.08F WCI  32
WAXAHACHIE     CLEAR     39  28  64 E3        30.06F
CLEBURNE       CLEAR     41  27  56 MISG      30.05F
GRANBURY       CLOUDY    42  29  60 SE5       30.05F WCI  39
$$

TXZ083>090-098>101-113>116-127>130-139>142-154-155-260800-
WESTERN NORTH TEXAS

CITY           SKY/WX    TMP DP  RH WIND       PRES   REMARKS
WICHITA FALLS  CLOUDY    38  23  55 SE14      29.99F WCI  30
WF-KICKAPOO    CLOUDY    36  26  67 SE8       30.00F WCI  29
VERNON         CLEAR     37  23  56 SE8       29.97F WCI  31
ABILENE        CLEAR     43  28  55 S17G26    29.92F WCI  35
ABILENE-DYESS  CLEAR     45  28  52 S20G26    29.92F WCI  37
GRAHAM         CLEAR     41  28  60 SE9       29.98F WCI  35
BRECKENRIDGE   CLEAR     45  27  50 SE17      29.97F WCI  37
CISCO          CLOUDY    41  28  60 SE12      29.98F WCI  34
RANGER         PTCLDY    39  28  65 S6        29.99F WCI  35
MINERAL WELLS  PTCLDY    39  26  59 SE8       30.01F WCI  33
STEPHENVILLE   PTCLDY    39  28  65 SE3       30.04F
COMANCHE       CLOUDY    38  30  72 SE6       30.01F WCI  34
BROWNWOOD      CLOUDY    37  30  75 CALM      30.01F
COLEMAN        PTCLDY    43  30  59 S5        29.99F
$$

TXZ143>147-156>162-174-175-260800-
CENTRAL TEXAS

CITY           SKY/WX    TMP DP  RH WIND       PRES   REMARKS
WACO           CLEAR     38  32  79 E5        30.05F WCI  34
WACO-MCGREGOR  CLEAR     41  30  65 CALM      30.05F
HILLSBORO      CLEAR     43  31  61 E9        30.04F WCI  38
CORSICANA      CLEAR     41  33  73 NE3       30.08F
MEXIA          CLEAR     44  29  55 CALM      30.06S
HEARNE         PTCLDY    42  35  75 CALM      30.06F
CAMERON        PTCLDY    46  34  63 SE3       30.05F
TEMPLE         PTCLDY    43  30  60 CALM      30.05F
KILLEEN        CLEAR     43  30  59 S7        30.01F WCI  39
KILLEEN-SKYLRK CLEAR     41  33  73 CALM      30.04S
FORT HOOD      CLEAR     42  31  65 SE5       30.00F WCI  40
GATESVILLE     CLEAR     41  32  70 CALM      30.05F
HAMILTON       CLEAR     38  31  76 S6        30.02F WCI  33
LAMPASAS       CLEAR     41  32  70 CALM      30.01F
$$

TXZ095>097-106>112-122>126-135>138-148>153-164>167-260800-
EAST TEXAS

CITY           SKY/WX    TMP DP  RH WIND       PRES   REMARKS
PARIS          CLEAR     37  25  60 E5        30.10S WCI  34
SULPHUR SPRNGS CLEAR     38  29  70 CALM      30.11F
MOUNT PLEASANT PTCLDY    34  32  92 CALM      30.12S
GILMER         PTCLDY    39  30  71 CALM      30.10S
MINEOLA        CLEAR     34  32  93 CALM      30.09F
TYLER          CLEAR     41  31  67 CALM      30.08S
LONGVIEW       CLEAR     39  33  79 CALM      30.09F
MARSHALL       MOCLDY    36  33  87 CALM      30.13S
PALESTINE      CLEAR     48  32  52 E6        30.08S
JACKSONVILLE   CLEAR     45  30  56 E3        30.09S
HENDERSON      CLEAR     37  35  92 CALM      30.10S
CENTER         SUNNY     41  39  91 CALM      30.11S
NACOGDOCHES    PTCLDY    37  32  81 CALM      30.07S
LUFKIN         PTCLDY    41  35  79 E5        30.08F WCI  38
$$

SUPPLEMENTAL OBSERVATIONS (CENTRAL)

CITY           SKY/WX    TMP DP  RH WIND       PRES   REMARKS
DENISON DAM      N/A     37  28  70 E5          N/A  WCI  34
CADDO GRASSLND   N/A     34  32  93 S2          N/A
PAT MAYSE LAKE   N/A     41  18  38 SE2         N/A
GREENVILLE       N/A     36  28  75 NE2         N/A
CEDAR HILL       N/A     43  25  49 E3          N/A
ATHENS           N/A     39  32  75 NE2         N/A
LAKE LIMESTONE   N/A     43  32  65 E2          N/A
MCGREGOR         N/A     41  28  60 N1          N/A
TEMPLE           N/A     45  32  61 E5          N/A
$$

SUPPLEMENTAL OBSERVATIONS (WEST)

CITY           SKY/WX    TMP DP  RH WIND       PRES   REMARKS
MILLERS CREEK    N/A     39  27  60 SE7         N/A  WCI  34
POSSUM KINGDOM   N/A     43  28  56 SE8         N/A  WCI  38
LBJ GRASSLAND    N/A     41  25  52 SE7         N/A  WCI  36
GRANBURY         N/A     43  30  61 SE6         N/A  WCI  39
COMANCHE         N/A     37  27  65 SE8         N/A  WCI  31
HAMBY            N/A     45  28  53 S16G23      N/A  WCI  37
IVIE RESERVOIR   N/A     43  28  56 E7          N/A  WCI  39
COLORADO BEND    N/A     45  30  57 S5          N/A
$$

SUPPLEMENTAL OBSERVATIONS (EAST)

CITY           SKY/WX    TMP DP  RH WIND       PRES   REMARKS
CLARKSVILLE      N/A     39  25  56 E2          N/A
TEXARKANA        N/A     32  32 100 CALM        N/A
LINDEN           N/A     34  32  93 CALM        N/A
CADDO LAKE       N/A     32  32 100 CALM        N/A
GILMER           N/A     37  34  87 CALM        N/A
HENDERSON        N/A     36  32  87 E2          N/A
LUFKIN           N/A     43  39  87 MISG        N/A
N SABINE NF      N/A     37  34  87 MISG        N/A
S SABINE NF      N/A     37  34  87 CALM        N/A
$$

SUPPLEMENTAL OBSERVATIONS ARE A COLLECTION OF AUTOMATED INSTRUMENTS
THAT ARE MAINTAINED BY A VARIETY OF FEDERAL AND STATE AGENCIES.
CERTAIN ELEMENTS...SUCH AS HUMIDITY VALUES AND SUSTAINED WIND
SPEEDS...MAY BE APPROXIMATED.




USA.gov is the U.S. government's official web portal to all federal, state and local government web resources and services.